Time,TemperatureF,DewpointF,PressureIn,WindDirection,WindDirectionDegrees,WindSpeedMPH,WindSpeedGustMPH,Humidity,HourlyPrecipIn,Conditions,Clouds,dailyrainin,SolarRadiationWatts/m^2,SoftwareType,DateUTC
2013-02-12 00:01:00,22.4,17.8,29.98,WNW,296,9.0,13.0,82,0.00,,OVC018,0.00,0.00,VWS V14.01,2013-02-12 06:01:00,
2013-02-12 00:06:00,22.3,17.4,29.98,WNW,296,6.0,13.0,81,0.00,,OVC018,0.00,0.00,VWS V14.01,2013-02-12 06:06:00,
2013-02-12 00:11:00,22.2,17.5,29.98,WNW,296,7.0,14.0,82,0.00,,OVC018,0.00,0.00,VWS V14.01,2013-02-12 06:11:00,
2013-02-12 00:16:00,22.1,17.5,29.98,WNW,296,9.0,14.0,82,0.00,,OVC018,0.00,0.00,VWS V14.01,2013-02-12 06:16:00,
2013-02-12 00:21:00,22.1,17.5,29.99,WNW,296,6.0,14.0,82,0.00,,OVC018,0.00,0.00,VWS V14.01,2013-02-12 06:21:00,
2013-02-12 00:26:00,22.0,17.4,29.98,WNW,296,6.0,14.0,82,0.00,,OVC018,0.00,0.00,VWS V14.01,2013-02-12 06:26:00,
2013-02-12 00:31:00,21.9,17.3,29.98,WNW,296,7.0,11.0,82,0.00,,OVC018,0.00,0.00,VWS V14.01,2013-02-12 06:31:00,
2013-02-12 00:36:00,21.8,17.2,29.98,WNW,296,6.0,11.0,82,0.00,,OVC018,0.00,0.00,VWS V14.01,2013-02-12 06:36:00,
2013-02-12 00:41:00,21.8,17.2,29.98,WNW,296,10.0,12.0,82,0.00,,OVC018,0.00,0.00,VWS V14.01,2013-02-12 06:41:00,
2013-02-12 00:46:00,21.7,17.1,29.98,WNW,296,6.0,12.0,82,0.00,,OVC018,0.00,0.00,VWS V14.01,2013-02-12 06:46:00,
2013-02-12 00:51:00,21.6,17.0,29.98,WNW,296,8.0,12.0,82,0.00,,OVC018,0.00,0.00,VWS V14.01,2013-02-12 06:51:00,
2013-02-12 00:56:00,21.6,17.0,29.98,WNW,296,5.0,14.0,82,0.00,,OVC018,0.00,0.00,VWS V14.01,2013-02-12 06:56:00,
2013-02-12 01:01:00,21.5,16.9,29.98,WNW,296,11.0,12.0,82,0.00,,OVC018,0.00,0.00,VWS V14.01,2013-02-12 07:01:00,
2013-02-12 01:06:00,21.5,17.1,29.98,WNW,296,7.0,12.0,83,0.00,,OVC018,0.00,0.00,VWS V14.01,2013-02-12 07:06:00,
2013-02-12 01:11:00,21.4,16.8,29.98,WNW,296,8.0,12.0,82,0.00,,OVC018,0.00,0.00,VWS V14.01,2013-02-12 07:11:00,
2013-02-12 01:16:00,21.3,16.7,29.98,WNW,296,7.0,12.0,82,0.00,,OVC018,0.00,0.00,VWS V14.01,2013-02-12 07:16:00,
2013-02-12 01:21:00,21.3,17.0,29.98,WNW,296,7.0,12.0,83,0.00,,OVC018,0.00,0.00,VWS V14.01,2013-02-12 07:21:00,
2013-02-12 01:26:00,21.2,16.9,29.98,WNW,296,8.0,12.0,83,0.00,,OVC018,0.00,0.00,VWS V14.01,2013-02-12 07:26:00,
2013-02-12 01:31:00,21.1,16.8,29.98,WNW,296,3.0,7.0,83,0.00,,OVC018,0.00,0.00,VWS V14.01,2013-02-12 07:31:00,
2013-02-12 01:36:00,21.1,17.0,29.98,WNW,296,2.0,7.0,84,0.00,,OVC018,0.00,0.00,VWS V14.01,2013-02-12 07:36:00,
2013-02-12 01:41:00,20.9,16.8,29.99,WNW,296,5.0,9.0,84,0.00,,OVC018,0.00,0.00,VWS V14.01,2013-02-12 07:41:00,
2013-02-12 01:46:00,20.8,16.7,29.99,WNW,296,3.0,10.0,84,0.00,,OVC018,0.00,0.00,VWS V14.01,2013-02-12 07:46:00,
2013-02-12 01:51:00,20.8,16.7,29.99,WNW,296,6.0,11.0,84,0.00,,OVC018,0.00,0.00,VWS V14.01,2013-02-12 07:51:00,
2013-02-12 01:56:00,20.7,16.4,29.99,WNW,296,5.0,11.0,83,0.00,,OVC018,0.00,0.00,VWS V14.01,2013-02-12 07:56:00,
2013-02-12 02:01:00,20.6,16.3,29.99,WNW,296,6.0,8.0,83,0.00,,OVC018,0.00,0.00,VWS V14.01,2013-02-12 08:01:00,
2013-02-12 02:06:00,20.6,16.3,29.99,WNW,296,7.0,9.0,83,0.00,,OVC018,0.00,0.00,VWS V14.01,2013-02-12 08:06:00,
2013-02-12 02:11:00,20.5,16.2,29.99,WNW,296,6.0,9.0,83,0.00,,OVC018,0.00,0.00,VWS V14.01,2013-02-12 08:11:00,
2013-02-12 02:16:00,20.5,16.2,29.99,WNW,296,2.0,11.0,83,0.00,,OVC018,0.00,0.00,VWS V14.01,2013-02-12 08:16:00,
2013-02-12 02:21:00,20.4,16.1,30.00,WNW,296,8.0,11.0,83,0.00,,OVC018,0.00,0.00,VWS V14.01,2013-02-12 08:21:00,
2013-02-12 02:26:00,20.4,16.1,30.00,WNW,296,7.0,11.0,83,0.00,,OVC018,0.00,0.00,VWS V14.01,2013-02-12 08:26:00,
2013-02-12 02:31:00,20.3,16.2,30.00,WNW,296,9.0,9.0,84,0.00,,OVC018,0.00,0.00,VWS V14.01,2013-02-12 08:31:00,
2013-02-12 02:36:00,20.2,16.1,30.00,WNW,296,6.0,9.0,84,0.00,,OVC018,0.00,0.00,VWS V14.01,2013-02-12 08:36:00,
2013-02-12 02:41:00,20.0,15.9,30.00,WNW,296,7.0,10.0,84,0.00,,OVC018,0.00,0.00,VWS V14.01,2013-02-12 08:41:00,
2013-02-12 02:46:00,20.0,15.9,30.00,WNW,296,7.0,11.0,84,0.00,,OVC018,0.00,0.00,VWS V14.01,2013-02-12 08:46:00,
2013-02-12 02:51:00,19.9,15.9,30.00,WNW,296,5.0,11.0,84,0.00,,OVC018,0.00,0.00,VWS V14.01,2013-02-12 08:51:00,
2013-02-12 02:56:00,19.9,15.9,29.99,WNW,296,3.0,11.0,84,0.00,,OVC018,0.00,0.00,VWS V14.01,2013-02-12 08:56:00,
2013-02-12 03:01:00,19.8,15.8,30.00,WNW,296,7.0,8.0,84,0.00,,,0.00,0.00,VWS V14.01,2013-02-12 09:01:00,
2013-02-12 03:06:00,19.8,15.8,30.00,WNW,296,9.0,10.0,84,0.00,,,0.00,0.00,VWS V14.01,2013-02-12 09:06:00,
2013-02-12 03:11:00,19.8,15.8,30.00,WNW,296,7.0,10.0,84,0.00,,,0.00,0.00,VWS V14.01,2013-02-12 09:11:00,
2013-02-12 03:16:00,19.7,15.7,30.00,WNW,296,6.0,10.0,84,0.00,,,0.00,0.00,VWS V14.01,2013-02-12 09:16:00,
2013-02-12 03:21:00,19.7,15.9,30.00,WNW,296,10.0,10.0,85,0.00,,,0.00,0.00,VWS V14.01,2013-02-12 09:21:00,
2013-02-12 03:26:00,19.7,15.7,30.00,WNW,296,5.0,10.0,84,0.00,,,0.00,0.00,VWS V14.01,2013-02-12 09:26:00,
2013-02-12 03:31:00,19.7,15.9,29.99,WNW,296,7.0,7.0,85,0.00,,,0.00,0.00,VWS V14.01,2013-02-12 09:31:00,
2013-02-12 03:36:00,19.6,15.6,29.99,WNW,296,6.0,10.0,84,0.00,,,0.00,0.00,VWS V14.01,2013-02-12 09:36:00,
2013-02-12 03:41:00,19.6,15.8,29.99,WNW,296,4.0,10.0,85,0.00,,,0.00,0.00,VWS V14.01,2013-02-12 09:41:00,
2013-02-12 03:46:00,19.5,15.7,29.99,WNW,296,6.0,10.0,85,0.00,,,0.00,0.00,VWS V14.01,2013-02-12 09:46:00,
2013-02-12 03:52:00,19.5,15.7,29.99,WNW,296,6.0,10.0,85,0.00,,,0.00,0.00,VWS V14.01,2013-02-12 09:52:00,
2013-02-12 03:57:00,19.4,15.6,29.99,WNW,296,6.0,10.0,85,0.00,,,0.00,0.00,VWS V14.01,2013-02-12 09:57:00,
2013-02-12 04:02:00,19.4,15.6,29.99,WNW,296,5.0,8.0,85,0.00,,OVC025,0.00,0.00,VWS V14.01,2013-02-12 10:02:00,
2013-02-12 04:07:00,19.4,15.6,29.99,WNW,296,7.0,8.0,85,0.00,,OVC025,0.00,0.00,VWS V14.01,2013-02-12 10:07:00,
2013-02-12 04:12:00,19.4,15.6,30.00,WNW,296,8.0,10.0,85,0.00,,OVC025,0.00,0.00,VWS V14.01,2013-02-12 10:12:00,
2013-02-12 04:17:00,19.3,15.5,30.00,WNW,296,7.0,10.0,85,0.00,,OVC025,0.00,0.00,VWS V14.01,2013-02-12 10:17:00,
2013-02-12 04:22:00,19.3,15.5,30.00,WNW,296,6.0,10.0,85,0.00,,OVC025,0.00,0.00,VWS V14.01,2013-02-12 10:22:00,
2013-02-12 04:27:00,19.3,15.3,30.00,WNW,296,3.0,10.0,84,0.00,,OVC025,0.00,0.00,VWS V14.01,2013-02-12 10:27:00,
2013-02-12 04:32:00,19.3,15.3,30.00,WNW,296,3.0,6.0,84,0.00,,OVC025,0.00,0.00,VWS V14.01,2013-02-12 10:32:00,
2013-02-12 04:37:00,19.3,15.3,30.00,WNW,296,6.0,8.0,84,0.00,,OVC025,0.00,0.00,VWS V14.01,2013-02-12 10:37:00,
2013-02-12 04:42:00,19.3,15.3,30.00,WNW,296,6.0,10.0,84,0.00,,OVC025,0.00,0.00,VWS V14.01,2013-02-12 10:42:00,
2013-02-12 04:47:00,19.3,15.0,30.01,WNW,296,6.0,10.0,83,0.00,,OVC025,0.00,0.00,VWS V14.01,2013-02-12 10:47:00,
2013-02-12 04:52:00,19.2,14.9,30.01,WNW,296,4.0,10.0,83,0.00,,OVC025,0.00,0.00,VWS V14.01,2013-02-12 10:52:00,
2013-02-12 04:57:00,19.2,14.9,30.01,WNW,296,5.0,10.0,83,0.00,,OVC025,0.00,0.00,VWS V14.01,2013-02-12 10:57:00,
2013-02-12 05:02:00,19.2,14.9,30.01,WNW,296,3.0,8.0,83,0.00,,OVC029,0.00,0.00,VWS V14.01,2013-02-12 11:02:00,
2013-02-12 05:07:00,19.1,15.1,30.01,WNW,296,6.0,9.0,84,0.00,,OVC029,0.00,0.00,VWS V14.01,2013-02-12 11:07:00,
2013-02-12 05:12:00,19.0,15.0,30.01,WNW,296,6.0,9.0,84,0.00,,OVC029,0.00,0.00,VWS V14.01,2013-02-12 11:12:00,
2013-02-12 05:17:00,18.9,14.9,30.01,WNW,296,11.0,11.0,84,0.00,,OVC029,0.00,0.00,VWS V14.01,2013-02-12 11:17:00,
2013-02-12 05:22:00,18.9,14.9,30.01,WNW,296,8.0,11.0,84,0.00,,OVC029,0.00,0.00,VWS V14.01,2013-02-12 11:22:00,
2013-02-12 05:27:00,18.7,14.7,30.01,WNW,296,5.0,11.0,84,0.00,,OVC029,0.00,0.00,VWS V14.01,2013-02-12 11:27:00,
2013-02-12 05:32:00,18.5,14.8,30.01,WNW,296,5.0,12.0,85,0.00,,OVC029,0.00,0.00,VWS V14.01,2013-02-12 11:32:00,
2013-02-12 05:37:00,18.4,14.6,30.01,WNW,296,11.0,13.0,85,0.00,,OVC029,0.00,0.00,VWS V14.01,2013-02-12 11:37:00,
2013-02-12 05:42:00,18.1,14.4,30.02,WNW,296,7.0,13.0,85,0.00,,OVC029,0.00,0.00,VWS V14.01,2013-02-12 11:42:00,
2013-02-12 05:47:00,17.9,14.2,30.02,WNW,296,6.0,13.0,85,0.00,,OVC029,0.00,0.00,VWS V14.01,2013-02-12 11:47:00,
2013-02-12 05:52:00,17.7,14.0,30.02,WNW,296,5.0,13.0,85,0.00,,OVC029,0.00,0.00,VWS V14.01,2013-02-12 11:52:00,
2013-02-12 05:57:00,17.4,13.7,30.02,WNW,296,1.0,13.0,85,0.00,,OVC029,0.00,0.00,VWS V14.01,2013-02-12 11:57:00,
2013-02-12 06:02:00,17.2,13.5,30.02,WNW,296,2.0,7.0,85,0.00,,FEW029,0.00,0.00,VWS V14.01,2013-02-12 12:02:00,
2013-02-12 06:07:00,17.0,13.5,30.02,WNW,296,7.0,8.0,86,0.00,,FEW029,0.00,0.00,VWS V14.01,2013-02-12 12:07:00,
2013-02-12 06:12:00,16.8,13.4,30.02,WNW,296,3.0,8.0,86,0.00,,FEW029,0.00,0.00,VWS V14.01,2013-02-12 12:12:00,
2013-02-12 06:17:00,16.6,13.1,30.02,WNW,296,5.0,8.0,86,0.00,,FEW029,0.00,0.00,VWS V14.01,2013-02-12 12:17:00,
2013-02-12 06:22:00,16.6,13.1,30.02,WNW,296,4.0,8.0,86,0.00,,FEW029,0.00,0.00,VWS V14.01,2013-02-12 12:22:00,
2013-02-12 06:27:00,16.4,12.9,30.02,WNW,296,4.0,8.0,86,0.00,,FEW029,0.00,0.00,VWS V14.01,2013-02-12 12:27:00,
2013-02-12 06:32:00,16.3,12.9,30.02,WNW,296,0.0,3.0,86,0.00,,FEW029,0.00,0.00,VWS V14.01,2013-02-12 12:32:00,
2013-02-12 06:37:00,16.1,12.7,30.02,WNW,296,1.0,3.0,86,0.00,,FEW029,0.00,0.00,VWS V14.01,2013-02-12 12:37:00,
2013-02-12 06:42:00,16.1,12.7,30.02,WNW,296,1.0,4.0,86,0.00,,FEW029,0.00,0.00,VWS V14.01,2013-02-12 12:42:00,
2013-02-12 06:47:00,16.0,12.8,30.02,WNW,296,1.0,6.0,87,0.00,,FEW029,0.00,0.00,VWS V14.01,2013-02-12 12:47:00,
2013-02-12 06:52:00,16.0,12.8,30.02,WNW,296,2.0,6.0,87,0.00,,FEW029,0.00,0.00,VWS V14.01,2013-02-12 12:52:00,
2013-02-12 06:57:00,15.9,12.7,30.02,WNW,296,0.0,6.0,87,0.00,,FEW029,0.00,0.00,VWS V14.01,2013-02-12 12:57:00,
2013-02-12 07:02:00,15.9,12.7,30.02,WNW,296,0.0,3.0,87,0.00,,OVC025,0.00,0.00,VWS V14.01,2013-02-12 13:02:00,
2013-02-12 07:07:00,15.8,12.6,30.02,WNW,296,0.0,4.0,87,0.00,,OVC025,0.00,0.00,VWS V14.01,2013-02-12 13:07:00,
2013-02-12 07:12:00,15.7,12.5,30.01,WNW,296,2.0,4.0,87,0.00,,OVC025,0.00,0.00,VWS V14.01,2013-02-12 13:12:00,
2013-02-12 07:17:00,15.7,12.5,30.01,WNW,296,1.0,4.0,87,0.00,,OVC025,0.00,5.00,VWS V14.01,2013-02-12 13:17:00,
2013-02-12 07:22:00,15.6,12.4,30.01,WNW,296,1.0,4.0,87,0.00,,OVC025,0.00,7.00,VWS V14.01,2013-02-12 13:22:00,
2013-02-12 07:27:00,15.6,12.4,30.01,WNW,296,0.0,4.0,87,0.00,,OVC025,0.00,9.00,VWS V14.01,2013-02-12 13:27:00,
2013-02-12 07:32:00,15.4,12.2,30.01,WNW,296,1.0,1.0,87,0.00,,OVC025,0.00,11.00,VWS V14.01,2013-02-12 13:32:00,
2013-02-12 07:37:00,15.4,12.2,30.01,WNW,296,0.0,4.0,87,0.00,,OVC025,0.00,18.00,VWS V14.01,2013-02-12 13:37:00,
2013-02-12 07:42:00,15.3,12.1,30.01,WNW,296,2.0,4.0,87,0.00,,OVC025,0.00,28.00,VWS V14.01,2013-02-12 13:42:00,
2013-02-12 07:47:00,15.3,12.1,30.01,WNW,296,2.0,4.0,87,0.00,,OVC025,0.00,28.00,VWS V14.01,2013-02-12 13:47:00,
2013-02-12 07:52:00,15.4,12.2,30.01,WNW,296,2.0,4.0,87,0.00,,OVC025,0.00,56.00,VWS V14.01,2013-02-12 13:52:00,
2013-02-12 07:57:00,15.5,12.3,30.02,WNW,296,1.0,4.0,87,0.00,,OVC025,0.00,42.00,VWS V14.01,2013-02-12 13:57:00,
2013-02-12 08:02:00,15.5,12.3,30.02,WNW,296,1.0,3.0,87,0.00,,OVC021,0.00,39.00,VWS V14.01,2013-02-12 14:02:00,
2013-02-12 08:07:00,15.5,12.3,30.02,WNW,296,1.0,3.0,87,0.00,,OVC021,0.00,54.00,VWS V14.01,2013-02-12 14:07:00,
2013-02-12 08:12:00,15.7,12.5,30.01,WNW,296,1.0,3.0,87,0.00,,OVC021,0.00,63.00,VWS V14.01,2013-02-12 14:12:00,
2013-02-12 08:17:00,15.9,13.0,30.01,WNW,296,1.0,3.0,88,0.00,,OVC021,0.00,65.00,VWS V14.01,2013-02-12 14:17:00,
2013-02-12 08:22:00,16.1,12.9,30.02,WNW,296,2.0,3.0,87,0.00,,OVC021,0.00,65.00,VWS V14.01,2013-02-12 14:22:00,
2013-02-12 08:27:00,16.3,13.1,30.01,WNW,296,0.0,3.0,87,0.00,,OVC021,0.00,65.00,VWS V14.01,2013-02-12 14:27:00,
2013-02-12 08:32:00,16.5,13.6,30.01,WNW,296,2.0,4.0,88,0.00,,OVC021,0.00,60.00,VWS V14.01,2013-02-12 14:32:00,
2013-02-12 08:37:00,16.7,13.5,30.01,WNW,296,1.0,4.0,87,0.00,,OVC021,0.00,58.00,VWS V14.01,2013-02-12 14:37:00,
2013-02-12 08:42:00,16.9,13.7,30.01,WNW,296,2.0,4.0,87,0.00,,OVC021,0.00,60.00,VWS V14.01,2013-02-12 14:42:00,
2013-02-12 08:47:00,17.1,13.9,30.01,WNW,296,0.0,4.0,87,0.00,,OVC021,0.00,62.00,VWS V14.01,2013-02-12 14:47:00,
2013-02-12 08:52:00,17.3,14.1,30.02,WNW,296,2.0,4.0,87,0.00,,OVC021,0.00,63.00,VWS V14.01,2013-02-12 14:52:00,
2013-02-12 08:57:00,17.4,14.2,30.01,WNW,296,3.0,4.0,87,0.00,,OVC021,0.00,70.00,VWS V14.01,2013-02-12 14:57:00,
2013-02-12 09:02:00,17.6,14.4,30.02,WNW,296,3.0,4.0,87,0.00,,OVC021,0.00,76.00,VWS V14.01,2013-02-12 15:02:00,
2013-02-12 09:07:00,17.8,14.6,30.01,WNW,296,3.0,4.0,87,0.00,,OVC021,0.00,93.00,VWS V14.01,2013-02-12 15:07:00,
2013-02-12 09:12:00,18.0,14.8,30.01,WNW,296,2.0,4.0,87,0.00,,OVC021,0.00,102.00,VWS V14.01,2013-02-12 15:12:00,
2013-02-12 09:17:00,18.2,14.7,30.01,WNW,296,1.0,4.0,86,0.00,,OVC021,0.00,105.00,VWS V14.01,2013-02-12 15:17:00,
2013-02-12 09:22:00,18.5,15.0,30.00,WNW,296,3.0,6.0,86,0.00,,OVC019,0.00,113.00,VWS V14.01,2013-02-12 15:22:00,
2013-02-12 09:27:00,18.8,15.1,30.00,WNW,296,4.0,6.0,85,0.00,,OVC019,0.00,121.00,VWS V14.01,2013-02-12 15:27:00,
2013-02-12 09:32:00,19.0,15.2,30.00,WNW,296,2.0,4.0,85,0.00,,OVC019,0.00,134.00,VWS V14.01,2013-02-12 15:32:00,
2013-02-12 09:37:00,19.3,15.5,30.00,WNW,296,2.0,4.0,85,0.00,,OVC019,0.00,142.00,VWS V14.01,2013-02-12 15:37:00,
2013-02-12 09:42:00,19.5,15.7,30.00,WNW,296,2.0,4.0,85,0.00,,OVC019,0.00,130.00,VWS V14.01,2013-02-12 15:42:00,
2013-02-12 09:47:00,19.6,15.8,30.00,WNW,296,1.0,4.0,85,0.00,,OVC019,0.00,141.00,VWS V14.01,2013-02-12 15:47:00,
2013-02-12 09:53:00,19.8,16.0,29.99,WNW,296,4.0,5.0,85,0.00,,OVC019,0.00,134.00,VWS V14.01,2013-02-12 15:53:00,
2013-02-12 09:58:00,20.0,16.2,29.99,WNW,296,3.0,6.0,85,0.00,,OVC019,0.00,137.00,VWS V14.01,2013-02-12 15:58:00,
2013-02-12 10:03:00,20.1,18.1,30.00,WNW,296,7.0,9.0,92,0.00,,OVC017,0.00,146.00,VWS V14.01,2013-02-12 16:03:00,
2013-02-12 10:08:00,20.1,16.0,29.99,WNW,296,3.0,9.0,84,0.00,,OVC017,0.00,153.00,VWS V14.01,2013-02-12 16:08:00,
2013-02-12 10:13:00,20.3,16.5,29.99,WNW,296,5.0,9.0,85,0.00,,OVC017,0.00,167.00,VWS V14.01,2013-02-12 16:13:00,
2013-02-12 10:18:00,20.6,16.5,29.99,WNW,296,3.0,9.0,84,0.00,,OVC017,0.00,195.00,VWS V14.01,2013-02-12 16:18:00,
2013-02-12 10:23:00,20.8,16.7,29.99,WNW,296,2.0,9.0,84,0.00,,OVC017,0.00,218.00,VWS V14.01,2013-02-12 16:23:00,
2013-02-12 10:28:00,21.1,17.0,29.98,WNW,296,5.0,9.0,84,0.00,,OVC017,0.00,241.00,VWS V14.01,2013-02-12 16:28:00,
2013-02-12 10:33:00,21.5,17.1,29.98,WNW,296,5.0,8.0,83,0.00,,OVC017,0.00,243.00,VWS V14.01,2013-02-12 16:33:00,
2013-02-12 10:38:00,21.7,17.3,29.98,WNW,296,4.0,9.0,83,0.00,,OVC017,0.00,244.00,VWS V14.01,2013-02-12 16:38:00,
2013-02-12 10:43:00,21.9,17.5,29.98,WNW,296,3.0,10.0,83,0.00,,OVC017,0.00,253.00,VWS V14.01,2013-02-12 16:43:00,
2013-02-12 10:48:00,22.2,17.5,29.98,WNW,296,4.0,10.0,82,0.00,,OVC017,0.00,251.00,VWS V14.01,2013-02-12 16:48:00,
2013-02-12 10:53:00,22.3,17.6,29.98,WNW,296,4.0,10.0,82,0.00,,OVC017,0.00,269.00,VWS V14.01,2013-02-12 16:53:00,
2013-02-12 10:58:00,22.7,18.0,29.98,WNW,296,6.0,10.0,82,0.00,,OVC017,0.00,311.00,VWS V14.01,2013-02-12 16:58:00,
2013-02-12 11:03:00,22.9,18.2,29.98,WNW,296,7.0,10.0,82,0.00,,SCT019,0.00,313.00,VWS V14.01,2013-02-12 17:03:00,
2013-02-12 11:08:00,23.3,18.6,29.98,WNW,296,5.0,10.0,82,0.00,,SCT019,0.00,323.00,VWS V14.01,2013-02-12 17:08:00,
2013-02-12 11:13:00,23.4,18.4,29.97,WNW,296,3.0,10.0,81,0.00,,SCT019,0.00,492.00,VWS V14.01,2013-02-12 17:13:00,
2013-02-12 11:18:00,23.4,18.4,29.97,WNW,296,5.0,10.0,81,0.00,,SCT019,0.00,221.00,VWS V14.01,2013-02-12 17:18:00,
2013-02-12 11:23:00,23.5,18.5,29.97,WNW,296,3.0,10.0,81,0.00,,FEW019,0.00,315.00,VWS V14.01,2013-02-12 17:23:00,
2013-02-12 11:28:00,24.0,19.0,29.96,WNW,296,3.0,10.0,81,0.00,,FEW019,0.00,443.00,VWS V14.01,2013-02-12 17:28:00,
2013-02-12 11:33:00,24.3,19.3,29.96,WNW,296,5.0,9.0,81,0.00,,FEW019,0.00,464.00,VWS V14.01,2013-02-12 17:33:00,
2013-02-12 11:38:00,24.5,19.2,29.95,WNW,296,2.0,9.0,80,0.00,,FEW019,0.00,459.00,VWS V14.01,2013-02-12 17:38:00,
2013-02-12 11:43:00,24.8,19.5,29.95,WNW,296,6.0,12.0,80,0.00,,FEW019,0.00,519.00,VWS V14.01,2013-02-12 17:43:00,
2013-02-12 11:48:00,25.0,19.4,29.95,WNW,296,6.0,12.0,79,0.00,,FEW019,0.00,432.00,VWS V14.01,2013-02-12 17:48:00,
2013-02-12 11:53:00,25.1,19.5,29.95,WNW,296,5.0,12.0,79,0.00,,FEW019,0.00,427.00,VWS V14.01,2013-02-12 17:53:00,
2013-02-12 11:58:00,25.6,20.0,29.95,South,188,8.0,12.0,79,0.00,,FEW019,0.00,271.00,VWS V14.01,2013-02-12 17:58:00,
2013-02-12 12:03:00,25.9,20.3,29.94,South,188,3.0,8.0,79,0.00,,FEW021,0.00,591.00,VWS V14.01,2013-02-12 18:03:00,
2013-02-12 12:08:00,26.2,20.3,29.94,South,188,6.0,11.0,78,0.00,,FEW021,0.00,508.00,VWS V14.01,2013-02-12 18:08:00,
2013-02-12 12:13:00,26.3,20.4,29.93,South,188,5.0,11.0,78,0.00,,FEW021,0.00,592.00,VWS V14.01,2013-02-12 18:13:00,
2013-02-12 12:18:00,26.6,20.7,29.93,South,188,5.0,11.0,78,0.00,,FEW021,0.00,601.00,VWS V14.01,2013-02-12 18:18:00,
2013-02-12 12:23:00,26.7,20.5,29.92,South,188,7.0,11.0,77,0.00,,FEW021,0.00,613.00,VWS V14.01,2013-02-12 18:23:00,
2013-02-12 12:28:00,26.9,20.7,29.92,South,189,7.0,13.0,77,0.00,,FEW021,0.00,584.00,VWS V14.01,2013-02-12 18:28:00,
2013-02-12 12:33:00,26.9,20.7,29.92,SW,227,6.0,16.0,77,0.00,,FEW021,0.00,575.00,VWS V14.01,2013-02-12 18:33:00,
2013-02-12 12:38:00,27.4,21.1,29.92,SW,227,8.0,16.0,77,0.00,,FEW021,0.00,573.00,VWS V14.01,2013-02-12 18:38:00,
2013-02-12 12:43:00,27.9,21.6,29.91,SW,227,4.0,16.0,77,0.00,,FEW021,0.00,571.00,VWS V14.01,2013-02-12 18:43:00,
2013-02-12 12:48:00,28.0,21.4,29.91,SW,227,8.0,16.0,76,0.00,,FEW021,0.00,571.00,VWS V14.01,2013-02-12 18:48:00,
2013-02-12 12:53:00,28.3,21.7,29.91,SW,227,6.0,16.0,76,0.00,,FEW021,0.00,571.00,VWS V14.01,2013-02-12 18:53:00,
2013-02-12 12:58:00,28.3,21.7,29.91,SW,227,8.0,16.0,76,0.00,,FEW021,0.00,587.00,VWS V14.01,2013-02-12 18:58:00,
2013-02-12 13:03:00,28.0,21.4,29.91,SW,227,11.0,13.0,76,0.00,,CLR,0.00,557.00,VWS V14.01,2013-02-12 19:03:00,
2013-02-12 13:08:00,28.1,21.5,29.90,SW,227,11.0,14.0,76,0.00,,CLR,0.00,571.00,VWS V14.01,2013-02-12 19:08:00,
2013-02-12 13:13:00,28.5,21.6,29.90,SW,227,6.0,14.0,75,0.00,,CLR,0.00,577.00,VWS V14.01,2013-02-12 19:13:00,
2013-02-12 13:18:00,28.8,21.6,29.90,South,184,9.0,14.0,74,0.00,,CLR,0.00,427.00,VWS V14.01,2013-02-12 19:18:00,
2013-02-12 13:23:00,28.9,22.0,29.90,South,185,11.0,14.0,75,0.00,,CLR,0.00,334.00,VWS V14.01,2013-02-12 19:23:00,
2013-02-12 13:28:00,28.7,21.8,29.90,SSW,202,7.0,15.0,75,0.00,,CLR,0.00,577.00,VWS V14.01,2013-02-12 19:28:00,
2013-02-12 13:33:00,29.2,22.0,29.90,SSW,201,7.0,13.0,74,0.00,,CLR,0.00,522.00,VWS V14.01,2013-02-12 19:33:00,
2013-02-12 13:38:00,29.4,22.1,29.89,SSW,198,9.0,14.0,74,0.00,,CLR,0.00,563.00,VWS V14.01,2013-02-12 19:38:00,
2013-02-12 13:43:00,29.3,22.1,29.89,South,169,5.0,15.0,74,0.00,,CLR,0.00,515.00,VWS V14.01,2013-02-12 19:43:00,
2013-02-12 13:48:00,29.7,22.4,29.89,South,184,7.0,15.0,74,0.00,,CLR,0.00,490.00,VWS V14.01,2013-02-12 19:48:00,
2013-02-12 13:53:00,30.2,22.6,29.89,SSW,208,5.0,15.0,73,0.00,,CLR,0.00,526.00,VWS V14.01,2013-02-12 19:53:00,
2013-02-12 13:58:00,30.3,22.4,29.89,SSW,213,7.0,16.0,72,0.00,,CLR,0.00,497.00,VWS V14.01,2013-02-12 19:58:00,
2013-02-12 14:03:00,30.1,22.2,29.89,SW,223,8.0,13.0,72,0.00,,CLR,0.00,496.00,VWS V14.01,2013-02-12 20:03:00,
2013-02-12 14:08:00,30.2,22.6,29.88,SSW,194,10.0,13.0,73,0.00,,CLR,0.00,485.00,VWS V14.01,2013-02-12 20:08:00,
2013-02-12 14:13:00,30.7,23.1,29.88,SSE,166,6.0,13.0,73,0.00,,CLR,0.00,476.00,VWS V14.01,2013-02-12 20:13:00,
2013-02-12 14:18:00,31.1,23.1,29.87,SSE,168,3.0,13.0,72,0.00,,CLR,0.00,466.00,VWS V14.01,2013-02-12 20:18:00,
2013-02-12 14:23:00,31.3,23.0,29.87,South,171,3.0,13.0,71,0.00,,CLR,0.00,457.00,VWS V14.01,2013-02-12 20:23:00,
2013-02-12 14:28:00,31.5,23.2,29.87,SSW,199,12.0,13.0,71,0.00,,CLR,0.00,448.00,VWS V14.01,2013-02-12 20:28:00,
2013-02-12 14:33:00,31.4,23.1,29.87,SSW,213,11.0,14.0,71,0.00,,CLR,0.00,438.00,VWS V14.01,2013-02-12 20:33:00,
2013-02-12 14:38:00,31.3,23.0,29.87,SSW,206,9.0,16.0,71,0.00,,CLR,0.00,429.00,VWS V14.01,2013-02-12 20:38:00,
2013-02-12 14:43:00,31.4,23.1,29.86,SSW,198,8.0,16.0,71,0.00,,CLR,0.00,420.00,VWS V14.01,2013-02-12 20:43:00,
2013-02-12 14:48:00,31.7,23.4,29.87,South,182,6.0,16.0,71,0.00,,CLR,0.00,406.00,VWS V14.01,2013-02-12 20:48:00,
2013-02-12 14:53:00,32.0,23.7,29.86,South,175,4.0,16.0,71,0.00,,CLR,0.00,396.00,VWS V14.01,2013-02-12 20:53:00,
2013-02-12 14:58:00,32.3,23.6,29.87,South,182,9.0,16.0,70,0.00,,CLR,0.00,383.00,VWS V14.01,2013-02-12 20:58:00,
2013-02-12 15:03:00,32.4,23.7,29.86,SSE,166,5.0,12.0,70,0.00,,CLR,0.00,374.00,VWS V14.01,2013-02-12 21:03:00,
2013-02-12 15:08:00,32.3,23.6,29.86,SW,225,10.0,14.0,70,0.00,,CLR,0.00,360.00,VWS V14.01,2013-02-12 21:08:00,
2013-02-12 15:13:00,32.4,23.7,29.86,South,172,9.0,14.0,70,0.00,,CLR,0.00,350.00,VWS V14.01,2013-02-12 21:13:00,
2013-02-12 15:18:00,32.5,23.8,29.86,SSW,192,6.0,16.0,70,0.00,,CLR,0.00,336.00,VWS V14.01,2013-02-12 21:18:00,
2013-02-12 15:23:00,32.6,23.9,29.86,SSW,212,5.0,16.0,70,0.00,,CLR,0.00,323.00,VWS V14.01,2013-02-12 21:23:00,
2013-02-12 15:28:00,32.8,24.1,29.86,South,186,6.0,16.0,70,0.00,,CLR,0.00,311.00,VWS V14.01,2013-02-12 21:28:00,
2013-02-12 15:33:00,33.2,24.5,29.86,SSW,205,7.0,11.0,70,0.00,,CLR,0.00,297.00,VWS V14.01,2013-02-12 21:33:00,
2013-02-12 15:38:00,33.0,24.0,29.86,SSW,193,8.0,15.0,69,0.00,,CLR,0.00,285.00,VWS V14.01,2013-02-12 21:38:00,
2013-02-12 15:43:00,33.1,24.0,29.86,South,170,4.0,15.0,69,0.00,,CLR,0.00,274.00,VWS V14.01,2013-02-12 21:43:00,
2013-02-12 15:48:00,33.0,24.0,29.85,SSW,202,8.0,15.0,69,0.00,,CLR,0.00,258.00,VWS V14.01,2013-02-12 21:48:00,
2013-02-12 15:53:00,33.0,24.0,29.85,SSW,194,10.0,15.0,69,0.00,,CLR,0.00,248.00,VWS V14.01,2013-02-12 21:53:00,
2013-02-12 15:58:00,33.2,24.1,29.85,South,173,8.0,15.0,69,0.00,,CLR,0.00,232.00,VWS V14.01,2013-02-12 21:58:00,
2013-02-12 16:03:00,33.4,24.3,29.85,South,184,6.0,15.0,69,0.00,,CLR,0.00,221.00,VWS V14.01,2013-02-12 22:03:00,
2013-02-12 16:08:00,33.4,24.3,29.85,South,188,9.0,16.0,69,0.00,,CLR,0.00,209.00,VWS V14.01,2013-02-12 22:08:00,
2013-02-12 16:13:00,33.4,24.3,29.84,SSW,203,7.0,16.0,69,0.00,,CLR,0.00,216.00,VWS V14.01,2013-02-12 22:13:00,
2013-02-12 16:18:00,33.3,24.2,29.84,SSW,202,7.0,16.0,69,0.00,,CLR,0.00,229.00,VWS V14.01,2013-02-12 22:18:00,
2013-02-12 16:23:00,33.4,24.7,29.84,South,183,9.0,16.0,70,0.00,,CLR,0.00,225.00,VWS V14.01,2013-02-12 22:23:00,
2013-02-12 16:28:00,33.6,24.9,29.84,South,185,10.0,16.0,70,0.00,,CLR,0.00,192.00,VWS V14.01,2013-02-12 22:28:00,
2013-02-12 16:33:00,33.6,24.5,29.84,SSW,195,11.0,14.0,69,0.00,,CLR,0.00,160.00,VWS V14.01,2013-02-12 22:33:00,
2013-02-12 16:38:00,33.5,24.4,29.84,SSW,194,10.0,14.0,69,0.00,,CLR,0.00,142.00,VWS V14.01,2013-02-12 22:38:00,
2013-02-12 16:43:00,33.5,24.8,29.84,SW,214,5.0,14.0,70,0.00,,CLR,0.00,128.00,VWS V14.01,2013-02-12 22:43:00,
2013-02-12 16:48:00,33.4,24.7,29.84,SSW,194,7.0,14.0,70,0.00,,CLR,0.00,104.00,VWS V14.01,2013-02-12 22:48:00,
2013-02-12 16:53:00,33.4,24.7,29.84,SSW,200,7.0,14.0,70,0.00,,CLR,0.00,83.00,VWS V14.01,2013-02-12 22:53:00,
2013-02-12 16:58:00,33.3,24.6,29.84,SW,219,8.0,14.0,70,0.00,,CLR,0.00,67.00,VWS V14.01,2013-02-12 22:58:00,
2013-02-12 17:03:00,33.2,24.5,29.84,SSW,200,7.0,10.0,70,0.00,,CLR,0.00,51.00,VWS V14.01,2013-02-12 23:03:00,
2013-02-12 17:08:00,33.0,24.6,29.84,SSW,204,6.0,10.0,71,0.00,,CLR,0.00,40.00,VWS V14.01,2013-02-12 23:08:00,
2013-02-12 17:13:00,32.8,24.5,29.84,SSW,202,4.0,10.0,71,0.35,,CLR,0.00,28.00,VWS V14.01,2013-02-12 23:13:00,
2013-02-12 17:18:00,32.7,24.4,29.84,SSW,194,5.0,10.0,71,0.35,,CLR,0.00,18.00,VWS V14.01,2013-02-12 23:18:00,
2013-02-12 17:24:00,32.3,24.3,29.84,SSW,195,3.0,10.0,72,0.35,,CLR,0.00,7.00,VWS V14.01,2013-02-12 23:24:00,
2013-02-12 17:29:00,31.9,23.9,29.84,SSW,207,4.0,10.0,72,0.35,,CLR,0.00,5.00,VWS V14.01,2013-02-12 23:29:00,
2013-02-12 17:34:00,31.7,24.0,29.84,SSW,207,2.0,5.0,73,0.35,,CLR,0.00,0.00,VWS V14.01,2013-02-12 23:34:00,
2013-02-12 17:39:00,31.4,23.8,29.84,SSW,207,4.0,5.0,73,0.35,,CLR,0.00,0.00,VWS V14.01,2013-02-12 23:39:00,
2013-02-12 17:44:00,31.1,23.8,29.85,SSW,207,2.0,5.0,74,0.35,,CLR,0.00,0.00,VWS V14.01,2013-02-12 23:44:00,
2013-02-12 17:49:00,30.8,23.5,29.85,SSW,207,3.0,5.0,74,0.35,,CLR,0.00,0.00,VWS V14.01,2013-02-12 23:49:00,
2013-02-12 17:54:00,30.7,23.7,29.85,SSW,207,3.0,5.0,75,0.35,,CLR,0.00,0.00,VWS V14.01,2013-02-12 23:54:00,
2013-02-12 17:59:00,30.3,23.3,29.85,SW,216,4.0,5.0,75,0.35,,CLR,0.00,0.00,VWS V14.01,2013-02-12 23:59:00,
2013-02-12 18:04:00,30.1,23.5,29.85,SW,227,3.0,6.0,76,0.35,,CLR,0.00,0.00,VWS V14.01,2013-02-13 00:04:00,
2013-02-12 18:09:00,30.1,23.5,29.85,SW,218,2.0,6.0,76,0.35,,CLR,0.00,0.00,VWS V14.01,2013-02-13 00:09:00,
2013-02-12 18:14:00,30.0,23.7,29.84,SW,215,4.0,7.0,77,0.35,,CLR,0.00,0.00,VWS V14.01,2013-02-13 00:14:00,
2013-02-12 18:19:00,29.9,23.6,29.84,SW,219,4.0,7.0,77,0.35,,CLR,0.00,0.00,VWS V14.01,2013-02-13 00:19:00,
2013-02-12 18:24:00,29.9,23.6,29.84,SSW,213,4.0,7.0,77,0.35,,CLR,0.00,0.00,VWS V14.01,2013-02-13 00:24:00,
2013-02-12 18:29:00,29.9,23.6,29.84,SSW,213,4.0,7.0,77,0.35,,CLR,0.00,0.00,VWS V14.01,2013-02-13 00:29:00,
2013-02-12 18:34:00,29.7,23.4,29.84,SSW,211,3.0,5.0,77,0.00,,CLR,0.00,0.00,VWS V14.01,2013-02-13 00:34:00,
2013-02-12 18:39:00,29.6,23.6,29.84,SSW,211,3.0,5.0,78,0.00,,CLR,0.00,0.00,VWS V14.01,2013-02-13 00:39:00,
2013-02-12 18:44:00,29.4,23.7,29.84,SSW,211,2.0,5.0,79,0.00,,CLR,0.00,0.00,VWS V14.01,2013-02-13 00:44:00,
2013-02-12 18:49:00,29.6,23.6,29.84,SSW,212,3.0,5.0,78,0.00,,CLR,0.00,0.00,VWS V14.01,2013-02-13 00:49:00,
2013-02-12 18:54:00,29.4,23.4,29.84,SSW,209,1.0,5.0,78,0.00,,CLR,0.00,0.00,VWS V14.01,2013-02-13 00:54:00,
2013-02-12 18:59:00,29.4,23.7,29.84,SW,214,5.0,5.0,79,0.00,,CLR,0.00,0.00,VWS V14.01,2013-02-13 00:59:00,
2013-02-12 19:04:00,29.5,23.5,29.84,SW,225,5.0,7.0,78,0.00,,CLR,0.00,0.00,VWS V14.01,2013-02-13 01:04:00,
2013-02-12 19:09:00,29.6,23.6,29.84,SW,215,5.0,7.0,78,0.00,,CLR,0.00,0.00,VWS V14.01,2013-02-13 01:09:00,
2013-02-12 19:14:00,29.5,23.5,29.84,SW,217,5.0,7.0,78,0.00,,CLR,0.00,0.00,VWS V14.01,2013-02-13 01:14:00,
2013-02-12 19:19:00,29.5,23.5,29.83,SW,227,4.0,7.0,78,0.00,,CLR,0.00,0.00,VWS V14.01,2013-02-13 01:19:00,
2013-02-12 19:24:00,29.5,23.8,29.84,SW,222,4.0,8.0,79,0.00,,CLR,0.00,0.00,VWS V14.01,2013-02-13 01:24:00,
2013-02-12 19:29:00,29.6,23.9,29.83,SSW,207,4.0,9.0,79,0.00,,CLR,0.00,0.00,VWS V14.01,2013-02-13 01:29:00,
2013-02-12 19:34:00,29.5,23.8,29.83,SW,223,5.0,9.0,79,0.00,,CLR,0.00,0.00,VWS V14.01,2013-02-13 01:34:00,
2013-02-12 19:39:00,29.3,23.6,29.83,SW,223,5.0,9.0,79,0.00,,CLR,0.00,0.00,VWS V14.01,2013-02-13 01:39:00,
2013-02-12 19:44:00,29.2,23.8,29.83,SW,227,3.0,9.0,80,0.00,,CLR,0.00,0.00,VWS V14.01,2013-02-13 01:44:00,
2013-02-12 19:49:00,29.1,23.7,29.83,SSW,203,4.0,9.0,80,0.00,,CLR,0.00,0.00,VWS V14.01,2013-02-13 01:49:00,
2013-02-12 19:54:00,29.0,23.6,29.83,SW,226,4.0,9.0,80,0.00,,CLR,0.00,0.00,VWS V14.01,2013-02-13 01:54:00,
2013-02-12 19:59:00,28.9,23.8,29.83,SSW,206,3.0,9.0,81,0.00,,CLR,0.00,0.00,VWS V14.01,2013-02-13 01:59:00,
2013-02-12 20:04:00,28.7,23.6,29.83,SSW,213,4.0,5.0,81,0.00,,CLR,0.00,0.00,VWS V14.01,2013-02-13 02:04:00,
2013-02-12 20:09:00,28.5,23.7,29.82,SSW,203,2.0,5.0,82,0.00,,CLR,0.00,0.00,VWS V14.01,2013-02-13 02:09:00,
2013-02-12 20:14:00,28.4,23.6,29.82,SSW,204,1.0,5.0,82,0.00,,CLR,0.00,0.00,VWS V14.01,2013-02-13 02:14:00,
2013-02-12 20:19:00,28.4,23.6,29.82,SSW,209,3.0,5.0,82,0.00,,CLR,0.00,0.00,VWS V14.01,2013-02-13 02:19:00,
2013-02-12 20:24:00,28.1,23.3,29.82,SSW,212,4.0,6.0,82,0.00,,CLR,0.00,0.00,VWS V14.01,2013-02-13 02:24:00,
2013-02-12 20:29:00,28.0,23.5,29.82,SSW,211,5.0,6.0,83,0.00,,CLR,0.00,0.00,VWS V14.01,2013-02-13 02:29:00,
2013-02-12 20:34:00,27.9,23.4,29.82,SSW,202,4.0,7.0,83,0.00,,CLR,0.00,0.00,VWS V14.01,2013-02-13 02:34:00,
2013-02-12 20:39:00,27.9,23.7,29.82,SSW,194,3.0,7.0,84,0.00,,CLR,0.00,0.00,VWS V14.01,2013-02-13 02:39:00,
2013-02-12 20:44:00,27.9,23.7,29.82,South,190,3.0,7.0,84,0.00,,CLR,0.00,0.00,VWS V14.01,2013-02-13 02:44:00,
2013-02-12 20:49:00,27.7,23.5,29.82,SSW,193,3.0,7.0,84,0.00,,CLR,0.00,0.00,VWS V14.01,2013-02-13 02:49:00,
2013-02-12 20:54:00,27.6,23.4,29.82,SSW,204,3.0,7.0,84,0.00,,CLR,0.00,0.00,VWS V14.01,2013-02-13 02:54:00,
2013-02-12 20:59:00,27.4,23.5,29.82,SSW,209,2.0,7.0,85,0.00,,CLR,0.00,0.00,VWS V14.01,2013-02-13 02:59:00,
2013-02-12 21:04:00,27.3,23.4,29.82,SSW,212,3.0,5.0,85,0.00,,CLR,0.00,0.00,VWS V14.01,2013-02-13 03:04:00,
2013-02-12 21:09:00,27.2,23.3,29.82,SSW,195,5.0,6.0,85,0.00,,CLR,0.00,0.00,VWS V14.01,2013-02-13 03:09:00,
2013-02-12 21:14:00,27.2,23.6,29.81,SW,214,3.0,6.0,86,0.00,,CLR,0.00,0.00,VWS V14.01,2013-02-13 03:14:00,
2013-02-12 21:19:00,27.0,23.4,29.81,SSW,208,3.0,6.0,86,0.00,,CLR,0.00,0.00,VWS V14.01,2013-02-13 03:19:00,
2013-02-12 21:24:00,27.0,23.4,29.81,SSW,200,3.0,6.0,86,0.00,,CLR,0.00,0.00,VWS V14.01,2013-02-13 03:24:00,
2013-02-12 21:29:00,27.1,23.8,29.81,SSW,201,3.0,6.0,87,0.00,,CLR,0.00,0.00,VWS V14.01,2013-02-13 03:29:00,
2013-02-12 21:34:00,27.1,23.5,29.81,SSW,205,2.0,5.0,86,0.00,,CLR,0.00,0.00,VWS V14.01,2013-02-13 03:34:00,
2013-02-12 21:39:00,26.9,23.6,29.81,SSW,205,3.0,5.0,87,0.00,,CLR,0.00,0.00,VWS V14.01,2013-02-13 03:39:00,
2013-02-12 21:44:00,26.7,23.4,29.81,SW,219,3.0,5.0,87,0.00,,CLR,0.00,0.00,VWS V14.01,2013-02-13 03:44:00,
2013-02-12 21:49:00,26.5,23.2,29.81,SW,227,4.0,5.0,87,0.00,,CLR,0.00,0.00,VWS V14.01,2013-02-13 03:49:00,
2013-02-12 21:54:00,26.5,23.2,29.81,SW,218,4.0,7.0,87,0.00,,CLR,0.00,0.00,VWS V14.01,2013-02-13 03:54:00,
2013-02-12 21:59:00,26.5,23.4,29.81,SW,215,3.0,7.0,88,0.00,,CLR,0.00,0.00,VWS V14.01,2013-02-13 03:59:00,
2013-02-12 22:04:00,26.4,23.3,29.81,SW,223,3.0,5.0,88,0.00,,CLR,0.00,0.00,VWS V14.01,2013-02-13 04:04:00,
2013-02-12 22:09:00,26.2,23.1,29.81,SW,219,3.0,5.0,88,0.00,,CLR,0.00,0.00,VWS V14.01,2013-02-13 04:09:00,
2013-02-12 22:14:00,25.9,22.8,29.81,SW,225,4.0,5.0,88,0.00,,CLR,0.00,0.00,VWS V14.01,2013-02-13 04:14:00,
2013-02-12 22:19:00,25.8,22.7,29.81,SW,227,3.0,5.0,88,0.00,,CLR,0.00,0.00,VWS V14.01,2013-02-13 04:19:00,
2013-02-12 22:24:00,25.8,22.7,29.81,SSW,212,3.0,5.0,88,0.00,,CLR,0.00,0.00,VWS V14.01,2013-02-13 04:24:00,
2013-02-12 22:29:00,25.7,22.9,29.81,SSW,202,5.0,5.0,89,0.00,,CLR,0.00,0.00,VWS V14.01,2013-02-13 04:29:00,
2013-02-12 22:34:00,25.6,22.8,29.81,SSW,211,4.0,6.0,89,0.00,,CLR,0.00,0.00,VWS V14.01,2013-02-13 04:34:00,
2013-02-12 22:39:00,25.4,22.4,29.81,SSW,212,3.0,6.0,88,0.00,,CLR,0.00,0.00,VWS V14.01,2013-02-13 04:39:00,
2013-02-12 22:44:00,25.3,22.5,29.80,SW,223,2.0,6.0,89,0.00,,CLR,0.00,0.00,VWS V14.01,2013-02-13 04:44:00,
2013-02-12 22:49:00,25.4,22.6,29.80,SW,224,3.0,6.0,89,0.00,,CLR,0.00,0.00,VWS V14.01,2013-02-13 04:49:00,
2013-02-12 22:54:00,25.4,22.6,29.80,SW,233,4.0,6.0,89,0.00,,CLR,0.00,0.00,VWS V14.01,2013-02-13 04:54:00,
2013-02-12 22:59:00,25.4,22.6,29.80,SSW,207,5.0,5.0,89,0.00,,CLR,0.00,0.00,VWS V14.01,2013-02-13 04:59:00,
2013-02-12 23:00:00,25.3,22.5,29.80,SSW,208,3.0,5.0,89,0.00,,CLR,0.00,0.00,VWS V14.01,2013-02-13 05:00:00,
2013-02-12 23:05:00,25.2,22.4,29.79,SW,218,3.0,5.0,89,0.00,,CLR,0.00,0.00,VWS V14.01,2013-02-13 05:05:00,
2013-02-12 23:10:00,24.9,22.1,29.80,SW,219,3.0,5.0,89,0.00,,CLR,0.00,0.00,VWS V14.01,2013-02-13 05:10:00,
2013-02-12 23:15:00,25.2,22.7,29.80,West,263,3.0,7.0,90,0.00,,CLR,0.00,0.00,VWS V14.01,2013-02-13 05:15:00,
2013-02-12 23:20:00,25.8,23.0,29.79,WSW,247,1.0,7.0,89,0.00,,CLR,0.00,0.00,VWS V14.01,2013-02-13 05:20:00,
2013-02-12 23:25:00,25.9,23.1,29.79,West,263,6.0,7.0,89,0.00,,CLR,0.00,0.00,VWS V14.01,2013-02-13 05:25:00,
2013-02-12 23:30:00,25.9,22.8,29.79,SW,234,4.0,4.0,88,0.00,,CLR,0.00,0.00,VWS V14.01,2013-02-13 05:30:00,
2013-02-12 23:35:00,25.8,22.7,29.79,WSW,245,4.0,7.0,88,0.00,,CLR,0.00,0.00,VWS V14.01,2013-02-13 05:35:00,
2013-02-12 23:40:00,25.7,22.6,29.79,WSW,252,5.0,7.0,88,0.00,,CLR,0.00,0.00,VWS V14.01,2013-02-13 05:40:00,
2013-02-12 23:45:00,25.7,22.6,29.79,West,261,2.0,7.0,88,0.00,,CLR,0.00,0.00,VWS V14.01,2013-02-13 05:45:00,
2013-02-12 23:50:00,25.6,22.5,29.79,West,259,2.0,7.0,88,0.00,,CLR,0.00,0.00,VWS V14.01,2013-02-13 05:50:00,
2013-02-12 23:55:00,25.6,22.5,29.78,West,267,2.0,7.0,88,0.00,,CLR,0.00,0.00,VWS V14.01,2013-02-13 05:55:00,